Satellite: MET-3/5
Catalog number: 21655
Epoch time:      09232.79894808
Element set:     642
Inclination:      082.5573 deg
RA of node:       160.8609 deg
Eccentricity:    0.0014558
Arg of perigee:   024.2337 deg
Mean anomaly:     335.9466 deg
Mean motion:   13.17020339 rev/day
Decay rate:        5.1e-07 rev/day^2
Epoch rev:           86613
Checksum:              318

Satellite: MET-2/21
Catalog number: 22782
Epoch time:      09231.81550834
Element set:    0543
Inclination:      082.5500 deg
RA of node:       131.5487 deg
Eccentricity:    0.0022539
Arg of perigee:   164.4994 deg
Mean anomaly:     195.6865 deg
Mean motion:   13.83638941 rev/day
Decay rate:       -8.8e-07 rev/day^2
Epoch rev:           80640
Checksum:              326

Satellite: OKEAN-4
Catalog number: 23317
Epoch time:      09231.67128504
Element set:    0996
Inclination:      082.5395 deg
RA of node:       275.2458 deg
Eccentricity:    0.0022907
Arg of perigee:   151.3441 deg
Mean anomaly:     208.9044 deg
Mean motion:   14.82713864 rev/day
Decay rate:       -8.0e-08 rev/day^2
Epoch rev:           80177
Checksum:              311

Satellite: NOAA-14
Catalog number: 23455
Epoch time:      09231.93669291
Element set:    0729
Inclination:      098.9066 deg
RA of node:       309.3829 deg
Eccentricity:    0.0009531
Arg of perigee:   016.1103 deg
Mean anomaly:     344.0341 deg
Mean motion:   14.13766376 rev/day
Decay rate:      -2.95e-06 rev/day^2
Epoch rev:           75493
Checksum:              322

Satellite: NOAA-15
Catalog number: 25338
Epoch time:      09231.74834812
Element set:    0049
Inclination:      098.5884 deg
RA of node:       219.5767 deg
Eccentricity:    0.0009863
Arg of perigee:   229.0382 deg
Mean anomaly:     130.9924 deg
Mean motion:   14.24779230 rev/day
Decay rate:      -1.46e-06 rev/day^2
Epoch rev:           58582
Checksum:              340

Satellite: RESURS
Catalog number: 25394
Epoch time:      09231.95234430
Element set:    0290
Inclination:      098.3337 deg
RA of node:       261.0440 deg
Eccentricity:    0.0002284
Arg of perigee:   042.6729 deg
Mean anomaly:     317.4628 deg
Mean motion:   14.24188074 rev/day
Decay rate:       -1.7e-07 rev/day^2
Epoch rev:           57747
Checksum:              294

Satellite: FENGYUN1
Catalog number: 25730
Epoch time:      09232.38392124
Element set:     831
Inclination:      098.7572 deg
RA of node:       200.6267 deg
Eccentricity:    0.0023433
Arg of perigee:   036.3371 deg
Mean anomaly:     323.9383 deg
Mean motion:   14.07960518 rev/day
Decay rate:       6.58e-06 rev/day^2
Epoch rev:           52935
Checksum:              301

Satellite: OKEAN-0
Catalog number: 25860
Epoch time:      09231.52515346
Element set:    0762
Inclination:      097.7926 deg
RA of node:       210.2078 deg
Eccentricity:    0.0001246
Arg of perigee:   044.9503 deg
Mean anomaly:     315.1795 deg
Mean motion:   14.73584353 rev/day
Decay rate:        3.2e-07 rev/day^2
Epoch rev:           54247
Checksum:              292

Satellite: NOAA-16
Catalog number: 26536
Epoch time:      09231.75986009
Element set:    0527
Inclination:      099.1787 deg
RA of node:       236.9711 deg
Eccentricity:    0.0011391
Arg of perigee:   102.6556 deg
Mean anomaly:     257.5853 deg
Mean motion:   14.12529069 rev/day
Decay rate:      -1.57e-06 rev/day^2
Epoch rev:           45927
Checksum:              337

Satellite: NOAA-17
Catalog number: 27453
Epoch time:      09231.93794464
Element set:    0529
Inclination:      098.4794 deg
RA of node:       288.7954 deg
Eccentricity:    0.0010785
Arg of perigee:   300.0443 deg
Mean anomaly:     059.9630 deg
Mean motion:   14.24083659 rev/day
Decay rate:       -7.3e-07 rev/day^2
Epoch rev:           37182
Checksum:              342

Satellite: NOAA-18
Catalog number: 28654
Epoch time:      09231.92573047
Element set:    0015
Inclination:      098.9089 deg
RA of node:       174.6800 deg
Eccentricity:    0.0014201
Arg of perigee:   179.2928 deg
Mean anomaly:     180.8301 deg
Mean motion:   14.11277322 rev/day
Decay rate:      -1.49e-06 rev/day^2
Epoch rev:           21894
Checksum:              307

Satellite: NOAA-19
Catalog number: 33591
Epoch time:      09231.91947717
Element set:    0220
Inclination:      098.7480 deg
RA of node:       176.0317 deg
Eccentricity:    0.0015137
Arg of perigee:   064.4445 deg
Mean anomaly:     295.8327 deg
Mean motion:   14.10978192 rev/day
Decay rate:        3.8e-07 rev/day^2
Epoch rev:           02742
Checksum:              315

/EX
SB KEPS @ AMSAT  $ORB09232.M
Orbital Elements  09232.MISC

HR AMSAT ORBITAL ELEMENTS FOR MANNED AND MISCELLANEOUS SATELLITES
FROM WA5QGD FORT WORTH,TX August 20, 2009
Send Subscribe/unsubscribe to KEPS at 
http://www.amsat.org/mailman/listinfo/keps
BID: ORB09232.M
TO ALL RADIO AMATEURS BT

Satellite: HUBBLE
Catalog number: 20580
Epoch time:      09230.15722119
Element set:    0435
Inclination:      028.4707 deg
RA of node:       057.8415 deg
Eccentricity:    0.0003405
Arg of perigee:   218.2776 deg
Mean anomaly:     141.7609 deg
Mean motion:   15.00822419 rev/day
Decay rate:       2.40e-06 rev/day^2
Epoch rev:           85917
Checksum:              277

Satellite: ISS
Catalog number: 25544
Epoch time:      09232.76531237
Element set:     450
Inclination:      051.6413 deg
RA of node:       335.3302 deg
Eccentricity:    0.0008604
Arg of perigee:   358.8497 deg
Mean anomaly:     138.3300 deg
Mean motion:   15.73685025 rev/day
Decay rate:      6.251e-05 rev/day^2
Epoch rev:           61612
Checksum:              278

Satellite: CO-58
Catalog number: 28895
Epoch time:      09232.22134410
Element set:     374
Inclination:      098.0503 deg
RA of node:       121.0166 deg
Eccentricity:    0.0018403
Arg of perigee:   144.4307 deg
Mean anomaly:     215.8111 deg
Mean motion:   14.59788653 rev/day
Decay rate:       1.25e-06 rev/day^2
Epoch rev:           20307
Checksum:              278

Satellite: FALCON
Catalog number: 30776
Epoch time:      09231.92431672
Element set:    0652
Inclination:      035.4338 deg
RA of node:       072.6944 deg
Eccentricity:    0.0000289
Arg of perigee:   009.2112 deg
Mean anomaly:     350.8609 deg
Mean motion:   15.03286615 rev/day
Decay rate:       1.65e-06 rev/day^2
Epoch rev:           13469
Checksum:              289

Satellite: MAST
Catalog number: 31126
Epoch time:      09232.74436281
Element set:     665
Inclination:      097.9845 deg
RA of node:       284.5757 deg
Eccentricity:    0.0095817
Arg of perigee:   079.4720 deg
Mean anomaly:     281.7348 deg
Mean motion:   14.53512412 rev/day
Decay rate:        2.1e-07 rev/day^2
Epoch rev:           12441
Checksum:              306

Satellite: CAPE1
Catalog number: 31130
Epoch time:      09232.64019071
Element set:     676
Inclination:      097.9842 deg
RA of node:       282.5180 deg
Eccentricity:    0.0103921
Arg of perigee:   085.7378 deg
Mean anomaly:     275.5662 deg
Mean motion:   14.52080733 rev/day
Decay rate:        8.0e-07 rev/day^2
Epoch rev:           12404
Checksum:              286

Satellite: COMPASS
Catalog number: 32787
Epoch time:      09232.19206445
Element set:     441
Inclination:      097.9378 deg
RA of node:       295.4604 deg
Eccentricity:    0.0015719
Arg of perigee:   180.5276 deg
Mean anomaly:     179.5922 deg
Mean motion:   14.81641096 rev/day
Decay rate:       -6.3e-07 rev/day^2
Epoch rev:            7092
Checksum:              321

Satellite: AAUSAT2
Catalog number: 32788
Epoch time:      09231.74943570
Element set:     436
Inclination:      097.9344 deg
RA of node:       295.0885 deg
Eccentricity:    0.0015013
Arg of perigee:   183.1715 deg
Mean anomaly:     176.9396 deg
Mean motion:   14.81765523 rev/day
Decay rate:       1.04e-06 rev/day^2
Epoch rev:            7086
Checksum:              324

Satellite: DO-64
Catalog number: 32789
Epoch time:      09231.77131545
Element set:    0456
Inclination:      097.9408 deg
RA of node:       295.3160 deg
Eccentricity:    0.0015441
Arg of perigee:   181.3068 deg
Mean anomaly:     178.8104 deg
Mean motion:   14.81770310 rev/day
Decay rate:       3.58e-06 rev/day^2
Epoch rev:           07086
Checksum:              315

Satellite: CO-66
Catalog number: 32791
Epoch time:      09232.17482218
Element set:     433
Inclination:      097.9392 deg
RA of node:       295.4757 deg
Eccentricity:    0.0015908
Arg of perigee:   178.9116 deg
Mean anomaly:     181.2132 deg
Mean motion:   14.81466762 rev/day
Decay rate:        7.1e-07 rev/day^2
Epoch rev:            7088
Checksum:              332

Satellite: RS-30
Catalog number: 32953
Epoch time:      09232.50099964
Element set:     384
Inclination:      082.4983 deg
RA of node:       216.6151 deg
Eccentricity:    0.0020404
Arg of perigee:   041.3534 deg
Mean anomaly:     318.9095 deg
Mean motion:   12.43002856 rev/day
Decay rate:        1.0e-07 rev/day^2
Epoch rev:            5638
Checksum:              284

Satellite: TACSAT-3
Catalog number: 35001
Epoch time:      09231.41656502
Element set:    0084
Inclination:      040.4562 deg
RA of node:       222.4849 deg
Eccentricity:    0.0025527
Arg of perigee:   273.2618 deg
Mean anomaly:     086.5276 deg
Mean motion:   15.39046939 rev/day
Decay rate:      1.099e-05 rev/day^2
Epoch rev:           01409
Checksum:              295

Satellite: PHARMSAT
Catalog number: 35002
Epoch time:      09232.34375764
Element set:      75
Inclination:      040.4687 deg
RA of node:       216.3950 deg
Eccentricity:    0.0028517
Arg of perigee:   283.7835 deg
Mean anomaly:     075.9807 deg
Mean motion:   15.39807842 rev/day
Decay rate:      1.187e-05 rev/day^2
Epoch rev:            1423
Checksum:              309

